Flag for Russia Weather past 2 weeks in Astrakhan, Russia

Now
50 °F

Clear.


Feels Like: 47 °F
Forecast: 53 / 58 °F
Wind: 8 mph from East

Location: Astrakhan

Current Time: Sep 24, 2014 at 7:31:54 AM

Latest Report: Sep 24, 2014 at 7:00 AM


Visibility: 10 mi

Pressure: 29.62 "Hg

Humidity: 76%

Dew point: 43 °F

Location of AstrakhanLocation

Historic Weather in Astrakhan — Graph

°F

Astrakhan temperature yesterday

Maximum temperature yesterday: 72 °F (at 1:30 PM)
Minimum temperature yesterday: 45 °F (at 6:00 AM)
Average temperature yesterday: 59 °F

Past Weeks' High & Low Weather Summary

 TemperatureHumidityPressure
High84 °F (Sep 10, 2:00 PM)88% (Sep 21, 8:30 AM)30.39 "Hg (Sep 21, 8:30 AM)
Low45 °F (Sep 18, 5:00 AM)14% (Sep 14, 12:30 PM)29.65 "Hg (Sep 24, 5:00 AM)
Average63 °F51%30.02 "Hg
* Reported Sep 9 6:00 AM — Sep 24 6:30 AM, Astrakhan, Weather by CustomWeather, © 2014

Note: Actual official high and low records may vary slightly from our data, if they occured in-between our weather recording intervals... More about our weather records

Advertising

Astrakhan weather history for previous 24 hours

 ConditionsComfort  
Time TempWeatherWind HumidityBarometerVisibility
6:30 AM
Sep 24
48 °FClear.6 mph82%29.65 "Hg10 mi
6:00 AM48 °FClear.8 mph82%29.65 "Hg10 mi
5:30 AM46 °FClear.3 mph82%29.65 "Hg10 mi
5:00 AM46 °FClear.6 mph87%29.65 "Hg10 mi
4:30 AM48 °FPassing clouds.3 mph76%29.68 "HgN/A
4:00 AM52 °FClear.6 mph67%29.68 "Hg10 mi
3:30 AM52 °FClear.8 mph77%29.68 "Hg10 mi
3:00 AM52 °FClear.8 mph77%29.68 "Hg10 mi
2:30 AM52 °FClear.3 mph77%29.71 "Hg10 mi
2:00 AM50 °FClear.3 mph82%29.74 "Hg10 mi
1:30 AM48 °FClear.No wind82%29.74 "Hg10 mi
1:00 AM48 °FClear.No wind82%29.74 "Hg10 mi
12:30 AM50 °FClear.1 mph82%29.77 "Hg10 mi
12:00 AM50 °FClear.1 mph76%29.77 "Hg10 mi
11:30 PM
Sep 23
52 °FClear.No wind77%29.77 "Hg10 mi
11:00 PM52 °FClear.1 mph77%29.80 "Hg10 mi
10:30 PM55 °FClear.No wind67%29.80 "Hg10 mi
10:00 PM55 °FClear.1 mph67%29.80 "Hg10 mi
9:30 PM57 °FClear.3 mph59%29.83 "Hg10 mi
9:00 PM57 °FClear.3 mph59%29.83 "Hg10 mi
8:30 PM59 °FClear.1 mph48%29.83 "Hg10 mi
8:00 PM61 °FClear.1 mph42%29.83 "Hg10 mi
7:30 PM64 °FSunny.3 mph40%29.83 "Hg10 mi
7:00 PM68 °FSunny.3 mph28%29.83 "Hg10 mi
6:30 PM70 °FSunny.3 mph25%29.83 "Hg10 mi
6:00 PM72 °FSunny.3 mph23%29.83 "Hg10 mi
5:30 PM72 °FPassing clouds.3 mph22%29.83 "HgN/A
5:00 PM72 °FPassing clouds.3 mph23%29.83 "HgN/A
4:30 PM72 °FPassing clouds.3 mph23%29.83 "HgN/A
4:00 PM72 °FPassing clouds.6 mph25%29.83 "HgN/A
3:30 PM72 °FSunny.3 mph23%29.86 "Hg10 mi
3:00 PM72 °FPassing clouds.6 mph23%29.86 "HgN/A
2:30 PM72 °FPassing clouds.6 mph23%29.86 "HgN/A
2:00 PM72 °FPassing clouds.6 mph25%29.86 "HgN/A
1:30 PM72 °FSunny.6 mph23%29.89 "Hg10 mi
1:00 PM70 °FPassing clouds.8 mph25%29.89 "HgN/A
12:30 PM70 °FSunny.8 mph27%29.89 "Hg10 mi
12:00 PM68 °FPassing clouds.8 mph30%29.89 "HgN/A
11:30 AM66 °FPassing clouds.8 mph35%29.92 "HgN/A
11:00 AM63 °FPassing clouds.6 mph42%29.92 "HgN/A
10:30 AM61 °FPassing clouds.6 mph45%29.92 "HgN/A
10:00 AM59 °FPassing clouds.3 mph51%29.92 "HgN/A
9:30 AM55 °FPassing clouds.3 mph55%29.92 "HgN/A
9:00 AM54 °FSunny.1 mph58%29.95 "Hg10 mi
8:30 AM52 °FSunny.1 mph62%29.95 "Hg10 mi
8:00 AM48 °FPassing clouds.3 mph71%29.95 "HgN/A
7:30 AM46 °FPassing clouds.3 mph76%29.92 "HgN/A
7:00 AM45 °FClear.3 mph81%29.92 "Hg10 mi
Weather by CustomWeather, © 2014

See weather overviewHow to use our weather pages